Tracking 33197 objects as of 18-Feb-2026
HD Live streaming from Space Station
objects crossing your sky now

METEOR 2-17 DEB

Track METEOR 2-17 DEB now!
10-day predictions


NORAD ID: 35369
Int'l Code: 1988-005AD
Perigee: 897.1 km
Apogee: 911.5 km
Inclination: 82.5 °
Period: 102.9 minutes
Semi major axis: 7275 km
RCS: 0.003 m2 (small)
Launch date: January 30, 1988
Source: Commonwealth of Independent States (former USSR) (CIS)
Launch site: PLESETSK MISSILE AND SPACE COMPLEX (PKMTR)

Note: This is SATELLITE DEBRIS
Your satellite tracking list
Your tracking list is empty




NASA's NSSDC Master Catalog

Two Line Element Set (TLE):
1 35369U 88005AD  26046.64471243  .00001495  00000-0  10239-2 0  9992
2 35369  82.5215  10.2535 0009878 338.8841 142.5869 13.99026201728908
Source of the keplerian elements: AFSPC